TimeMST,TemperatureF,Dew PointF,Humidity,Sea Level PressureIn,VisibilityMPH,Wind Direction,Wind SpeedMPH,Gust SpeedMPH,PrecipitationIn,Events,Conditions,WindDirDegrees,DateUTC
12:06 AM,26.6,24.8,93,30.29,10.0,ENE,3.5,-,N/A,,Partly Cloudy,60,2012-11-20 07:06:00
12:53 AM,26.1,23.0,88,30.29,10.0,ESE,5.8,-,N/A,,Clear,110,2012-11-20 07:53:00
1:46 AM,23.0,21.2,93,30.28,9.0,Calm,Calm,-,N/A,,Scattered Clouds,0,2012-11-20 08:46:00
1:53 AM,23.0,21.0,92,30.29,10.0,NW,4.6,-,N/A,,Mostly Cloudy,310,2012-11-20 08:53:00
1:59 AM,23.0,21.2,93,30.28,2.5,Calm,Calm,-,N/A,,Mostly Cloudy,0,2012-11-20 08:59:00
2:02 AM,24.8,21.2,86,30.28,0.8,Calm,Calm,-,N/A,,Mostly Cloudy,0,2012-11-20 09:02:00
2:29 AM,23.0,21.2,93,30.28,2.5,Calm,Calm,-,N/A,,Mostly Cloudy,0,2012-11-20 09:29:00
2:36 AM,21.2,21.2,100,30.29,4.0,Calm,Calm,-,N/A,,Mostly Cloudy,0,2012-11-20 09:36:00
2:39 AM,21.2,19.4,93,30.28,1.8,Calm,Calm,-,N/A,,Scattered Clouds,0,2012-11-20 09:39:00
2:43 AM,21.2,19.4,93,30.28,0.8,North,3.5,-,N/A,,Mist,10,2012-11-20 09:43:00
2:53 AM,24.1,23.0,96,30.27,0.2,Calm,Calm,-,N/A,Fog,Light Freezing Fog,0,2012-11-20 09:53:00
3:53 AM,23.0,21.0,92,30.27,0.5,West,3.5,-,N/A,Fog,Light Freezing Fog,280,2012-11-20 10:53:00
4:53 AM,21.9,19.0,89,30.29,0.8,Calm,Calm,-,N/A,,Overcast,0,2012-11-20 11:53:00
5:05 AM,23.0,21.2,93,30.27,2.0,Calm,Calm,-,N/A,,Overcast,0,2012-11-20 12:05:00
5:15 AM,24.8,21.2,86,30.27,8.0,East,3.5,-,N/A,,Overcast,80,2012-11-20 12:15:00
5:26 AM,24.8,21.2,86,30.28,1.2,ENE,3.5,-,N/A,,Overcast,70,2012-11-20 12:26:00
5:34 AM,24.8,23.0,93,30.28,0.5,NE,5.8,-,N/A,Fog,Light Freezing Fog,50,2012-11-20 12:34:00
5:39 AM,23.0,21.2,93,30.28,2.0,ENE,6.9,-,N/A,,Overcast,60,2012-11-20 12:39:00
5:46 AM,23.0,21.2,93,30.28,10.0,ENE,4.6,-,N/A,,Mostly Cloudy,60,2012-11-20 12:46:00
5:53 AM,23.0,19.9,88,30.30,10.0,ENE,4.6,-,N/A,,Mostly Cloudy,60,2012-11-20 12:53:00
6:00 AM,23.0,19.4,86,30.28,10.0,ENE,5.8,-,N/A,,Scattered Clouds,60,2012-11-20 13:00:00
6:53 AM,19.9,18.0,92,30.32,10.0,WSW,3.5,-,N/A,,Clear,250,2012-11-20 13:53:00
7:22 AM,19.4,17.6,93,30.28,1.8,Calm,Calm,-,N/A,,Scattered Clouds,0,2012-11-20 14:22:00
7:24 AM,19.4,17.6,93,30.28,0.5,Calm,Calm,-,N/A,Fog,Light Freezing Fog,0,2012-11-20 14:24:00
7:53 AM,21.0,19.0,92,30.34,0.2,Calm,Calm,-,N/A,Fog,Light Freezing Fog,0,2012-11-20 14:53:00
8:53 AM,24.1,23.0,96,30.33,1.8,Calm,Calm,-,N/A,,Overcast,0,2012-11-20 15:53:00
9:10 AM,24.8,24.8,100,30.28,3.0,Calm,Calm,-,N/A,,Overcast,0,2012-11-20 16:10:00
9:23 AM,26.6,24.8,93,30.29,2.0,Calm,Calm,-,N/A,,Overcast,0,2012-11-20 16:23:00
9:32 AM,26.6,24.8,93,30.28,4.0,Calm,Calm,-,N/A,,Overcast,0,2012-11-20 16:32:00
9:44 AM,26.6,24.8,93,30.29,1.8,SW,3.5,-,N/A,,Overcast,230,2012-11-20 16:44:00
9:53 AM,26.1,25.0,96,30.33,0.8,Calm,Calm,-,N/A,,Mist,0,2012-11-20 16:53:00
10:53 AM,30.0,28.9,96,30.33,0.8,Calm,Calm,-,N/A,,Mist,0,2012-11-20 17:53:00
11:11 AM,30.2,28.4,93,30.28,2.0,Calm,Calm,-,N/A,,Overcast,0,2012-11-20 18:11:00
11:22 AM,32.0,30.2,93,30.27,0.8,ESE,3.5,-,N/A,,Overcast,120,2012-11-20 18:22:00
11:53 AM,32.0,30.2,93,30.26,1.8,Calm,Calm,-,N/A,,Overcast,0,2012-11-20 18:53:00
11:57 AM,32.0,30.2,93,30.26,3.0,Calm,Calm,-,N/A,,Overcast,0,2012-11-20 18:57:00
12:32 PM,33.8,32.0,93,30.24,10.0,Calm,Calm,-,N/A,,Scattered Clouds,0,2012-11-20 19:32:00
12:53 PM,36.0,33.1,89,30.25,10.0,Calm,Calm,-,N/A,,Clear,0,2012-11-20 19:53:00
1:53 PM,42.1,34.0,73,30.19,10.0,Calm,Calm,-,N/A,,Clear,0,2012-11-20 20:53:00
2:53 PM,43.0,34.0,71,30.17,10.0,SSE,3.5,-,N/A,,Clear,160,2012-11-20 21:53:00
3:53 PM,41.0,34.0,76,30.18,10.0,Calm,Calm,-,N/A,,Clear,0,2012-11-20 22:53:00
4:53 PM,37.0,32.0,82,30.19,10.0,Calm,Calm,-,N/A,,Clear,0,2012-11-20 23:53:00
5:53 PM,32.0,28.9,88,30.22,10.0,NNW,6.9,-,N/A,,Clear,330,2012-11-21 00:53:00
6:53 PM,30.9,28.0,89,30.22,10.0,ENE,4.6,-,N/A,,Clear,60,2012-11-21 01:53:00
7:53 PM,28.0,26.1,92,30.23,10.0,Calm,Calm,-,N/A,,Clear,0,2012-11-21 02:53:00
8:53 PM,28.0,26.1,92,30.21,10.0,Calm,Calm,-,N/A,,Clear,0,2012-11-21 03:53:00
9:53 PM,27.0,25.0,92,30.21,10.0,Calm,Calm,-,N/A,,Clear,0,2012-11-21 04:53:00
10:53 PM,26.1,24.1,92,30.18,10.0,NNW,8.1,-,N/A,,Clear,330,2012-11-21 05:53:00
11:53 PM,24.1,21.9,91,30.17,10.0,ENE,3.5,-,N/A,,Clear,60,2012-11-21 06:53:00